DateTimeUTC,F1_A11,F1_S11,BsB_S11,BsG_S11,BsR_S11,BbsB_S11,BbsG_S11,BbsR_S11,BaB_A11,BaG_A11,BaR_A11,Tu_S11,T_S11,Uu_S11,U_S11,P_S11,T1_A11
2021-01-05T14:00:00Z,00000200,21000000,,,,,,,0000.59,0000.36,0000.00,14.9,22.3,,00.0,0633.3,30.8
2021-01-05T14:01:00Z,00000200,21000000,,,,,,,-000.39,-000.53,0000.03,15.0,22.4,,00.0,0633.3,30.8
2021-01-05T14:02:00Z,00000200,21000000,,,,,,,0000.18,0000.24,-000.18,15.0,22.4,,00.0,0633.3,30.8
2021-01-05T14:03:00Z,00000200,61000000,,,,,,,0000.20,0000.36,0000.16,15.0,22.4,,00.0,0633.3,30.8
2021-01-05T14:04:00Z,00000200,41000000,0000.17,-000.07,0000.14,-000.15,0000.25,-000.07,-000.11,-000.13,0000.39,15.4,22.3,,00.0,0634.0,30.8
2021-01-05T14:05:00Z,00000200,01000000,0000.63,-000.10,0000.10,-000.28,0000.03,0000.12,0000.38,0000.45,0000.01,15.5,22.3,,00.0,0634.1,30.8
2021-01-05T14:06:00Z,00000200,01000000,0000.73,0000.19,0000.10,0000.07,0000.10,0000.00,0000.04,0000.14,0000.07,15.6,22.3,,00.0,0634.1,30.8
2021-01-05T14:07:00Z,00000200,01000000,0000.83,-000.18,-000.06,-000.36,0000.15,-000.15,0000.21,0000.09,0000.08,15.6,22.3,,00.0,0634.0,30.8
2021-01-05T14:08:00Z,00000200,01000000,-000.18,-000.25,0000.04,0000.22,0000.02,-000.20,-000.08,0000.03,-000.06,15.6,22.3,,00.0,0634.0,30.8
2021-01-05T14:09:00Z,00000200,01000000,0000.02,-000.11,-000.05,0000.40,0000.15,0000.00,0000.16,0000.16,0000.10,15.7,22.3,,00.0,0633.9,30.8
2021-01-05T14:10:00Z,00000200,01000000,-000.05,0000.08,-000.00,0000.62,0000.09,0000.05,-000.05,-000.28,-000.11,15.7,22.3,,00.0,0633.9,30.8
2021-01-05T14:11:00Z,00000200,01000000,-000.46,0000.26,0000.22,-000.16,-000.03,-000.01,0000.13,-000.09,0000.21,15.7,22.3,,00.0,0633.9,30.8
2021-01-05T14:12:00Z,00000200,01000000,0000.17,-000.14,-000.08,-000.26,-000.08,-000.00,0000.04,0000.70,-000.11,15.7,22.3,,00.0,0634.0,30.8
2021-01-05T14:13:00Z,00000200,01000000,-000.15,0000.06,0000.29,-000.17,0000.04,-000.05,0000.09,0000.01,-000.01,15.8,22.3,,00.0,0634.0,30.8
2021-01-05T14:14:00Z,00000200,01000000,0000.86,-000.13,0000.09,-000.23,-000.07,0000.04,-000.07,-000.46,0000.25,15.8,22.4,,00.0,0634.0,30.8
2021-01-05T14:15:00Z,00000200,01000000,0000.85,0000.14,0000.14,0000.22,0000.16,0000.03,0000.26,0000.40,-000.11,15.9,22.4,,00.0,0634.0,30.8
2021-01-05T14:16:00Z,00000200,01000000,0000.69,-000.00,0000.07,-000.22,-000.10,0000.00,0000.10,-000.30,0000.25,15.9,22.4,,00.0,0634.0,30.8
2021-01-05T14:17:00Z,00000200,01000000,0000.49,0000.27,0000.28,0000.01,0000.12,0000.22,-000.13,0000.12,-000.32,15.9,22.4,,00.0,0633.9,30.8
2021-01-05T14:18:00Z,00000200,01000000,0000.24,0000.13,0000.25,0000.90,0000.14,-000.05,0000.01,-000.02,0000.01,15.8,22.4,,00.0,0633.9,30.8
2021-01-05T14:19:00Z,00000200,01000000,0000.23,-000.01,-000.09,-000.16,-000.08,0000.06,-000.01,0000.18,0000.05,15.7,22.3,,00.0,0633.9,30.8
2021-01-05T14:20:00Z,00000200,01000000,0000.35,0000.11,-000.09,0000.30,0000.24,-000.08,0000.07,-000.14,0000.22,15.7,22.3,,00.0,0634.0,30.7
2021-01-05T14:21:00Z,00000200,01000000,0000.59,-000.08,-000.06,0000.59,0000.07,-000.07,0000.13,0000.19,-000.10,15.6,22.3,,00.0,0633.9,30.7
2021-01-05T14:22:00Z,00000200,01000000,0001.02,0000.17,0000.18,-000.30,-000.00,0000.01,-000.05,-000.28,-000.02,15.6,22.2,,00.0,0633.9,30.7
2021-01-05T14:23:00Z,00000200,01000000,0000.05,0000.16,0000.09,0000.34,0000.15,0000.03,-000.09,-000.03,0000.19,15.5,22.2,,00.0,0633.9,30.7
2021-01-05T14:24:00Z,00000200,01000000,0000.38,-000.01,0000.07,0000.47,0000.40,0000.15,0000.21,0000.20,-000.12,15.4,22.2,,00.0,0633.9,30.7
2021-01-05T14:25:00Z,00000200,01000000,0000.58,-000.13,0000.17,0000.46,-000.00,-000.02,-000.04,-000.15,-000.25,15.4,22.1,,00.0,0633.8,30.7
2021-01-05T14:26:00Z,00000200,01000000,0000.74,0000.02,0000.39,-000.10,-000.01,-000.13,0000.18,0000.49,0000.44,15.4,22.1,,00.0,0633.8,30.7
2021-01-05T14:27:00Z,00000200,01000000,-000.33,0000.10,0000.24,0000.03,0000.04,0000.00,0000.18,0000.04,0000.04,15.4,22.1,,00.0,0633.8,30.7
2021-01-05T14:28:00Z,00000200,01000000,0001.02,-000.07,0000.02,-000.07,0000.21,0000.04,0000.19,0000.13,0000.40,15.5,22.2,,00.0,0633.8,30.7
2021-01-05T14:29:00Z,00000200,01000000,0001.08,0000.11,0000.08,0000.65,0000.09,0000.28,-000.12,-000.00,-000.11,15.6,22.2,,00.0,0633.8,30.7
2021-01-05T14:30:00Z,00000200,01000000,0000.60,0000.21,0000.08,0000.04,0000.16,0000.14,0000.29,0000.50,0000.14,15.6,22.2,,00.0,0633.8,30.7
2021-01-05T14:31:00Z,00000200,01000000,0000.92,-000.08,-000.19,0000.04,0000.29,-000.04,0000.05,0000.09,0000.05,15.6,22.2,,00.0,0633.8,30.7
2021-01-05T14:32:00Z,00000200,01000000,0000.53,0000.18,-000.07,0000.25,0000.27,0000.08,0000.18,-000.07,0000.13,15.6,22.2,,00.0,0633.8,30.7
2021-01-05T14:33:00Z,00000200,01000000,0000.85,0000.04,0000.08,-000.19,0000.09,0000.21,0000.18,0000.14,-000.14,15.6,22.2,,00.0,0633.7,30.7
2021-01-05T14:34:00Z,00000200,01000000,0000.69,0000.26,0000.06,-000.51,0000.15,0000.17,-000.42,0000.02,0000.08,15.6,22.2,,00.0,0633.7,30.7
2021-01-05T14:35:00Z,00000200,01000000,0000.34,0000.23,0000.34,-000.06,0000.26,0000.13,0000.37,0000.01,0000.08,15.5,22.2,,00.0,0633.7,30.7
2021-01-05T14:36:00Z,00000200,01000000,0000.72,0000.08,0000.06,0000.28,0000.20,-000.05,0000.27,-000.09,-000.22,15.5,22.2,,00.0,0633.7,30.7
2021-01-05T14:37:00Z,00000200,01000000,0000.86,0000.26,0000.10,-000.08,0000.13,-000.09,0000.23,0000.28,0000.22,15.4,22.1,,00.0,0633.7,30.7
2021-01-05T14:38:00Z,00000200,01000000,0000.93,0000.06,0000.24,-000.13,0000.15,0000.00,-000.46,-000.06,-000.13,15.4,22.1,,00.0,0633.7,30.7
2021-01-05T14:39:00Z,00000200,01000000,0000.98,0000.08,0000.02,0000.47,0000.08,-000.15,0000.24,-000.02,0000.52,15.4,22.1,,00.0,0633.7,30.7
2021-01-05T14:40:00Z,00000200,01000000,-000.08,-000.03,0000.06,-000.08,-000.01,-000.01,0000.21,0000.43,-000.53,15.3,22.1,,00.0,0633.7,30.7
2021-01-05T14:41:00Z,00000200,01000000,0000.59,-000.03,-000.02,0000.87,0000.16,-000.01,0000.49,0000.33,0000.81,15.3,22.0,,00.0,0633.7,30.7
2021-01-05T14:42:00Z,00000200,01000000,0000.48,-000.07,0000.27,0000.26,0000.11,0000.00,0000.23,0000.27,-000.08,15.3,22.0,,00.0,0633.6,30.7
2021-01-05T14:43:00Z,00000200,01000000,0000.41,0000.28,-000.14,0000.28,0000.12,-000.21,-000.29,-000.17,0000.26,15.3,22.1,,00.0,0633.6,30.7
2021-01-05T14:44:00Z,00000200,01000000,0000.54,0000.04,0000.07,0000.16,-000.05,0000.17,0000.27,-000.01,-000.38,15.4,22.1,,00.0,0633.6,30.7
2021-01-05T14:45:00Z,00000200,01000000,0000.72,0000.31,0000.05,0000.44,0000.17,0000.08,-000.38,-000.34,-000.32,15.4,22.1,,00.0,0633.6,30.7
2021-01-05T14:46:00Z,00000200,01000000,0000.51,-000.14,-000.14,0000.27,-000.08,0000.01,0000.03,0000.06,0000.41,15.5,22.1,,00.0,0633.6,30.7
2021-01-05T14:47:00Z,00000200,01000000,0000.86,0000.07,0000.24,0000.06,-000.02,-000.00,0000.20,0000.45,-000.06,15.5,22.1,,00.0,0633.6,30.7
2021-01-05T14:48:00Z,00000200,01000000,0000.81,0000.21,0000.23,-000.27,0000.17,0000.05,0000.06,0000.14,0000.26,15.5,22.1,,00.0,0633.6,30.7
2021-01-05T14:49:00Z,00000200,01000000,0000.27,0000.01,-000.04,-000.01,0000.00,0000.03,0000.31,0000.03,-000.07,15.5,22.2,,00.0,0633.6,30.7
2021-01-05T14:50:00Z,00000200,01000000,0001.02,0000.01,0000.18,0000.00,0000.01,-000.06,0000.25,0000.08,0000.06,15.5,22.1,,00.0,0633.6,30.7
2021-01-05T14:51:00Z,00000200,01000000,0000.79,-000.04,0000.09,0000.27,0000.37,0000.11,-000.40,-000.28,0000.02,15.5,22.1,,00.0,0633.5,30.7
2021-01-05T14:52:00Z,00000200,01000000,0000.36,-000.15,0000.25,0000.41,0000.11,-000.01,-000.19,0000.02,-000.13,15.4,22.1,,00.0,0633.5,30.7
2021-01-05T14:53:00Z,00000200,01000000,-000.20,0000.18,0000.17,0000.06,0000.25,-000.13,0000.35,0000.03,0000.23,15.4,22.1,,00.0,0633.5,30.7
2021-01-05T14:54:00Z,00000200,01000000,0000.70,-000.11,0000.06,0000.48,-000.07,-000.10,-000.07,0000.06,-000.37,15.4,22.1,,00.0,0633.5,30.7
2021-01-05T14:55:00Z,00000200,01000000,0000.92,0000.02,0000.12,0000.29,0000.14,-000.02,-000.17,0000.30,0000.32,15.3,22.0,,00.0,0633.5,30.7
2021-01-05T14:56:00Z,00000200,01000000,0000.21,0000.06,0000.29,-000.00,0000.34,-000.18,0000.44,-000.09,-000.04,15.3,22.0,,00.0,0633.4,30.7
2021-01-05T14:57:00Z,00000200,41000000,,,,,,,-000.45,-001.00,-000.25,15.4,22.0,,00.0,0633.5,30.7
2021-01-05T14:58:00Z,00000200,61000000,,,,,,,-000.14,0000.62,0000.07,15.0,22.2,,00.0,0632.5,30.8
2021-01-05T14:59:00Z,00000200,21000000,,,,,,,0000.68,0000.33,0000.24,15.0,22.3,,00.0,0632.5,30.8
